Location: Cossonay
(46.5833°N, 6.4167°E)
Time: 22:16:03
(UTC+00:00)

STARLINK-48 - Pass Details

Date: 07 June 2020
Orbit: 505 x 506 km, 53.0° (Epoch: 11 July)

Event Time Altitude Azimuth Distance (km) Brightness Sun altitude
Exits shadow 01:52:52 15° 257° (WSW) 1,412 5.3 -13.8°
Maximum altitude 01:55:55 60° 335° (NNW) 582 3.9 -13.5°
Drops below altitude 10° 01:59:47 10° 57° (ENE) 1,725 7.3 -13.1°
Sets 02:02:01 0° 61° (ENE) 2,612 8.3 -12.9°
